Home   Weather   Schwechat   Past weeks

Flag for Austria Past Weather in Schwechat, Lower Austria, Austria — Yesterday and Last 2 Weeks

52 °F

Partly sunny.

Feels Like: 49 °F
Forecast: 41 / 56 °F
Wind: 7 mph from North

Location: Vienna Schwechat-Flughafen Airport

Current Time: Oct 27, 2016 at 2:54:23 PM

Latest Report: Oct 27, 2016 at 1:50 PM

Visibility: N/A

Pressure: 30.45 "Hg

Humidity: 72%

Dew Point: 43 °F

Location of SchwechatLocation

Past Weather in Schwechat — Graph


Schwechat Temperature Yesterday

Maximum temperature yesterday: 57 °F (at 12:20 AM)
Minimum temperature yesterday: 46 °F (at 9:50 PM)
Average temperature yesterday: 53 °F

High & Low Weather Summary for the Past Weeks

High64 °F (Oct 16, 1:20 PM)100% (Oct 16, 5:50 AM)30.48 "Hg (Oct 16, 5:50 AM)
Low36 °F (Oct 22, 8:20 AM)51% (Oct 22, 1:50 PM)29.92 "Hg (Oct 15, 7:50 AM)
Average49 °F87%30.11 "Hg
* Reported Oct 12 1:20 PM — Oct 27 1:20 PM, Schwechat, Weather by CustomWeather, © 2016

Note: Actual official high and low records may vary slightly from our data, if they occured in-between our weather recording intervals... More about our weather records


Schwechat Weather History for the Previous 24 Hours

Scroll right to see more
Time TempWeatherWind HumidityBarometerVisibility
1:20 PM
Thu, Oct 27
52 °FPartly sunny.7 mph72%30.45 "HgN/A
12:50 PM54 °FPartly sunny.6 mph67%30.45 "HgN/A
12:20 PM54 °FSunny.3 mph67%30.45 "Hg10 mi
11:50 AM52 °FScattered clouds.3 mph67%30.48 "Hg6 mi
11:20 AM50 °FScattered clouds.3 mph76%30.48 "Hg5 mi
10:50 AM48 °FPartly sunny.3 mph82%30.48 "Hg5 mi
10:20 AM46 °FPartly sunny.5 mph82%30.45 "Hg4 mi
9:50 AM45 °FBroken clouds.5 mph87%30.45 "Hg4 mi
9:20 AM45 °FBroken clouds.5 mph87%30.45 "Hg4 mi
8:50 AM45 °FBroken clouds.6 mph87%30.45 "Hg4 mi
8:20 AM45 °FBroken clouds.3 mph87%30.42 "Hg4 mi
7:50 AM45 °FBroken clouds.5 mph87%30.42 "Hg5 mi
7:20 AM45 °FPartly cloudy.5 mph87%30.42 "Hg6 mi
6:50 AM45 °FPartly cloudy.3 mph87%30.42 "Hg6 mi
6:20 AM45 °FPartly cloudy.2 mph87%30.42 "Hg6 mi
5:50 AM45 °FPassing clouds.2 mph87%30.42 "Hg6 mi
5:20 AM45 °FPassing clouds.2 mph87%30.42 "Hg6 mi
4:50 AM45 °FPassing clouds.3 mph87%30.42 "Hg6 mi
4:20 AM45 °FPassing clouds.3 mph87%30.39 "Hg6 mi
3:50 AM43 °FPassing clouds.1 mph87%30.39 "Hg6 mi
3:20 AM45 °FPartly cloudy.3 mph81%30.39 "HgN/A
2:50 AM45 °FPassing clouds.3 mph81%30.39 "HgN/A
2:20 AM45 °FPassing clouds.3 mph87%30.39 "HgN/A
1:50 AM45 °FPassing clouds.3 mph87%30.39 "HgN/A
1:20 AM45 °FPassing clouds.5 mph87%30.39 "HgN/A
12:50 AM46 °FPassing clouds.5 mph82%30.39 "HgN/A
12:20 AM46 °FPassing clouds.6 mph82%30.39 "HgN/A
11:50 PM
Wed, Oct 26
46 °FPassing clouds.6 mph82%30.39 "HgN/A
11:20 PM46 °FPassing clouds.6 mph87%30.39 "HgN/A
10:50 PM46 °FPassing clouds.6 mph87%30.36 "HgN/A
10:20 PM46 °FPartly cloudy.5 mph87%30.39 "HgN/A
9:50 PM46 °FPartly cloudy.5 mph87%30.36 "HgN/A
9:20 PM48 °FPartly cloudy.5 mph82%30.36 "HgN/A
8:50 PM48 °FPassing clouds.9 mph82%30.36 "HgN/A
8:20 PM50 °FPassing clouds.8 mph76%30.36 "HgN/A
7:50 PM50 °FPassing clouds.12 mph82%30.33 "HgN/A
7:20 PM52 °FPassing clouds.9 mph77%30.33 "HgN/A
6:50 PM50 °FPassing clouds.6 mph82%30.33 "HgN/A
6:20 PM50 °FPassing clouds.5 mph88%30.33 "HgN/A
5:50 PM52 °FPartly cloudy.5 mph88%30.33 "HgN/A
5:20 PM54 °FBroken clouds.3 mph82%30.30 "HgN/A
4:50 PM54 °FPartly sunny.3 mph82%30.30 "HgN/A
4:20 PM54 °FPartly sunny.3 mph82%30.30 "HgN/A
3:50 PM55 °FPartly sunny.5 mph77%30.30 "HgN/A
3:20 PM55 °FPartly sunny.5 mph77%30.30 "HgN/A
2:50 PM55 °FPartly sunny.6 mph77%30.30 "HgN/A
2:20 PM55 °FPartly sunny.7 mph77%30.30 "HgN/A
Weather by CustomWeather, © 2016

See weather overviewHow to use our weather pages